User: anonymous   Login
Location: Unspecified
(0.0000°N, 0.0000°E)
Time: 18:40:14
(UTC+00:00)
Language:

JUGNU - Orbit

View from above orbital plane
View from above orbital plane
View from above satellite
View from above satellite

Ground track
Ground track

The orbit data is extracted from the following two-line orbital elements,

1 37839U 11058B   19230.63846387 +.00000314 +00000-0 +25431-4 0  9992
2 37839 019.9621 325.1912 0018788 279.2906 221.1139 14.12655817405884
Epoch (UTC): 18 August 2019 15:19:23
Eccentricity: 0.0018788
inclination: 19.9621°
perigee height: 837 km
apogee height: 864 km
right ascension of ascending node: 325.1912°
argument of perigee: 279.2906°
revolutions per day: 14.12655817
mean anomaly at epoch: 221.1139°
orbit number at epoch: 40588

The dashed part of the orbit path shows where the satellite is in the earth's shadow,  

DLR